ASTRA 5B (EGNOS/PRN 123)

Last updated on Sat Sep 05 2026 00:03:32 GMT+0000 (Coordinated Universal Time)

1 39617U 14011B 26247.60052669 .00000130 00000+0 00000+0 0 9990 2 39617 0.0913 297.1216 0002762 253.1785 33.0900 1.00271894 45463
UTC large
Height (km)
Speed (km/s)
/
Latitude / Longitude
Inclination (degrees)
Orbital Period (minutes)
Azimuth
Elevation
Range (km)
Doppler Factor

Next 0 passes for location: London (51.5072 / 0.1276)

No passes found over London.
ASTRA 5B (EGNOS/PRN 123)